Regional Weather Roundup
Issued by NWS Green Bay, WI

Home | Current Version | Previous Version | Text Only | Print | Product List | Glossary On
Versions: 1 2 3 4 5 6 7 8 9 10 11 12 13 14 15 16 17 18 19 20 21 22 23 24 25 26 27 28 29 30 31 32 33 34 35 36 37 38 39 40 41 42 43 44 45 46 47 48 49 50
000
ASUS43 KGRB 221711
RWRGRB

NORTH-CENTRAL AND NORTHEAST WISCONSIN REGIONAL WEATHER ROUNDUP
NATIONAL WEATHER SERVICE GREEN BAY WI
1100 AM CST MON JAN 22 2018

WIZ005-009-010>012-018-019-221800-
NORTH CENTRAL WISCONSIN

CITY           SKY/WX    TMP DP  RH WIND       PRES   REMARKS
IRONWOOD       MIX PCPN  27  25  92 NE14      29.88F FOG
MANITOWISH WTR CLOUDY    28  28 100 NE12G21   29.80F
ARBOR VITAE    CLOUDY    32  30  92 NE10G18   29.78F
EAGLE RIVER    CLOUDY    30  29  99 NE16      29.79F
LAND O LAKES   CLOUDY    29  28  97 NE8       29.83F FOG
RHINELANDER    SNOW      31  30  96 NE16G24   29.75F VSB 1/2
PHILLIPS       FLURRIES  29  28  93 NE17      29.77S
ANTIGO         LGT SNOW  32  30  94 NE24G33   29.69F
TOMAHAWK       SNOW      31  28  90 NE9G16    29.74F VSB 1/2
MERRILL        LGT SNOW  32  32  99 NE12G20   29.71F VSB 1
$$

WIZ013-073-221800-
NORTHEAST WISCONSIN

CITY           SKY/WX    TMP DP  RH WIND       PRES   REMARKS
IRON MOUNTAIN  LGT SNOW  32  29  88 NE9       29.81F VSB 1
MARINETTE      LGT SNOW  32  31  96 NE28G36   29.77F VSB 1
OCONTO         CLOUDY    32  32  99 NE13G22   29.74F
$$

WIZ017-030-035>037-045-221800-
CENTRAL WISCONSIN

CITY           SKY/WX    TMP DP  RH WIND       PRES   REMARKS
MEDFORD        LGT SNOW  31  30  94 NE17      29.68F VSB 3/4
WAUSAU         LGT SNOW  33  30  88 NE13G29   29.65F FOG
MOSINEE        LGT SNOW  34  32  93 NE20G28   29.67F
MARSHFIELD     LGT SNOW  33  32  96 NE18G25   29.62F VSB 1
WISC RAPIDS    NOT AVBL
STEVENS POINT  CLOUDY    32  32 100 NE15G26   29.66F
WAUPACA        CLOUDY    36  33  90 NE9G21    29.66R
SHAWANO        LGT SNOW  35  32  91 NE16G26   29.69F VSB 1
CLINTONVILLE   LGT RAIN  34  32  93 NE21G26   29.65F
WAUTOMA        CLOUDY    35  33  92 NE18G24   29.64S
$$

WIZ038-039-048-051-221800-
FOX VALLEY

CITY           SKY/WX    TMP DP  RH WIND       PRES   REMARKS
NWS GREEN BAY  RAIN      35  32  88 NE24      29.67F FOG
APPLETON       LGT RAIN  34  34 100 NE29G41   29.55F FOG
OSHKOSH        CLOUDY    36  34  92 E13G21    29.62R
FOND DU LAC    CLOUDY    39  34  82 E17G24    29.60F
$$

WIZ022-050-052-221800-
EAST CENTRAL WISCONSIN

CITY           SKY/WX    TMP DP  RH WIND       PRES   REMARKS
EPHRAIM        LGT SNOW  32  31  97 NE14G24   29.75F VSB 3/4
WASHINGTON ISL NOT AVBL
STURGEON BAY   LGT SNOW  34  33  96 NE16G25   29.74F FOG
MANITOWOC      LGT RAIN  36  35  96 NE12G21   29.68F FOG
SHEBOYGAN      RAIN      37  37 100 NE21G28   29.61F FOG
$$

LMZ563-521-522-541>543-221800-
LAKESHORE

STATION/POSITION TIME  TEMP    WIND        PRES    VSBY  WAVE
                       AIR SEA DIR/SP/G                  HT/PER
                 (UTC) (F)     (DEG/KT/KT) (MB)    (MI)  (FT/S)
SHEBOYGAN LKSHOR 1700   36      20/ 19/ 22 1003.3F
KEWAUNEE LKSHORE 1642   36      40/ 14/ 23 1005.6F
NORTHPORT PIER   1640   32      50/  5/ 15 1009.5F
SISTER BAY LKSHO 1605   34     110/  8/ 16   N/A
MENOMINEE LKSHOR 1636   32     360/ 33/ 37 1008.2F
$$




USA.gov is the U.S. government's official web portal to all federal, state and local government web resources and services.